STARLINK-4558 (53426 NORAD) Tracking and Keplerian Element Data

This shows tracking and keplerian element data for the satellite.

Feedback or suggestion? Click here.




ElementValue
Catalog53426
NameSTARLINK-4558
Epoch Orbit130
Epoch Day324.91667824
Epoch Year2022
RAAN112.7066
Inclination53.2137
Eccentricity0.0001213
Argument of Perigee100.3506
Mean Anonmoly194.0225
Mean Motion15.08850804
Decay Rate-0.00015301
L11 53426U 22097AQ 22324.91667824 -.00015301 00000+0 -94502-3 0 9990
L22 53426 53.2137 112.7066 0001213 100.3506 194.0225 15.08850804 1304



Live tracking and technical data element details for STARLINK-4558 (NORAD 53426). STARLINK-4558 can be tracked NOW for your location showing map with azimuth and elevation plus other details from your city location.







IsCatalogInMostPopularTable: catalog: 53426, numindb: 4
Update: records affected: 1



GetName: 53426 STARLINK-4558

Hit Count: updated at: Thu, 08 Dec 2022 20:32:04 GMT